Lublinek, Polska

13:52 CEST dnia 27-maj-2017 (GMT +0200)
Lublinek

Pogoda Historia dla EPLL - maj, 2017

Change the Weather History Date:

Piątek, maj 19, 2017

  Actual Average Record
Temperature  
Temperatura średnia 64 ° F -  
Temperatura maksymalna 78 ° F - - ()
Temperatura minimalna 51 ° F - - ()
Growing Degree Days 14 (Base 50)    
Moisture  
Punkt rosy 47 ° F    
Average Humidity 50    
Maximum Humidity 72    
Minimum Humidity 34    
Opady  
Opady 0.00 cali - - ()
Ciśnienie na poziomie morza  
Ciśnienie na poziomie morza 29.94 cali    
Wiatr  
Prędkość wiatru 6 mph ()    
Maksymalna prędkość wiatru 14 mph    
Max Gust Speed -    
T = Trace of Precipitation, MM = Missing Value Source: Averaged Metar Reports

Daily Weather History Graph

Daily Weather History Graph

Search for Another Location

Airport or City:

Trip Planner

Search our weather history database for the weather conditions in past years. The results will help you decide how hot, cold, wet, or windy it might be!

Date:

Astronomia

May. 19, 2017 Wschód Zachów
Aktualny czas 04:44 CEST 20:34 CEST
Zmierzch cywilny 04:01 CEST 21:17 CEST
Zmierzch żeglarski 03:01 CEST 22:18 CEST
świt/zmierzch astronomiczny 01:18 CEST 00:07 CEST
Księżyc 01:59 CEST (5/19) 12:19 CEST (5/19)
całkowite oświetlenie 17h 16m
Długość dnia
15h 50m
Ostatnia kwadra, 46% of the Moon is Illuminated
Maj 19
Ostatnia kwadra
Maj 25
Nowy
Czerwiec 1
Pierwsza kwadra
Czerwiec 9
Pełnia Księżyca
Czerwiec 17
Ostatnia kwadra

Hourly Weather History & Observations

czas (CEST) Temp. Punkt rosy Wilgotność Ciśnienie Widzialność Wind Dir Prędkość wiatru prędkość w porywie Precip Wydarzenia Warunki pogodowe
12:00 AM 59.0 ° F 44.6 ° F 59% 30.01 cali - wschodni 5.8 mph - N/A   pogodnie
12:30 AM 59.0 ° F 44.6 ° F 59% 30.01 cali - wschodni 6.9 mph - N/A   pogodnie
1:00 AM 59.0 ° F 44.6 ° F 59% 30.01 cali - wschodni 4.6 mph - N/A   pogodnie
1:30 AM 57.2 ° F 44.6 ° F 63% 30.01 cali - wschodni 4.6 mph - N/A   pogodnie
2:00 AM 55.4 ° F 44.6 ° F 67% 30.01 cali - wschodni 5.8 mph - N/A   pogodnie
2:30 AM 53.6 ° F 44.6 ° F 72% 29.98 cali - wschodni 3.5 mph - N/A   pogodnie
3:00 AM 53.6 ° F 42.8 ° F 67% 29.98 cali - wschodni 4.6 mph - N/A   pogodnie
3:30 AM 53.6 ° F 42.8 ° F 67% 29.98 cali - wschodni 4.6 mph - N/A   pogodnie
4:00 AM 53.6 ° F 42.8 ° F 67% 29.98 cali - wschodni 4.6 mph - N/A   pogodnie
4:30 AM 53.6 ° F 42.8 ° F 67% 29.98 cali - wschodni 4.6 mph - N/A   pogodnie
5:00 AM 51.8 ° F 42.8 ° F 71% 29.98 cali - wschodni 5.8 mph - N/A   pogodnie
5:30 AM 53.6 ° F 42.8 ° F 67% 29.98 cali - wschodni 5.8 mph - N/A   pogodnie
6:30 AM 55.4 ° F 42.8 ° F 63% 29.98 cali - wschodni 4.6 mph - N/A   pogodnie
7:00 AM 59.0 ° F 42.8 ° F 55% 29.98 cali - wschodni 4.6 mph - N/A   pogodnie
7:30 AM 60.8 ° F 44.6 ° F 55% 29.98 cali - WsPdWs 5.8 mph - N/A   pogodnie
8:00 AM 62.6 ° F 46.4 ° F 55% 29.98 cali - WsPdWs 5.8 mph - N/A   pogodnie
8:30 AM 64.4 ° F 48.2 ° F 56% 29.98 cali - wschodni 8.1 mph - N/A   pogodnie
9:00 AM 66.2 ° F 48.2 ° F 52% 29.98 cali - wschodni 8.1 mph - N/A   pogodnie
9:30 AM 68.0 ° F 48.2 ° F 49% 29.98 cali - WsPdWs 9.2 mph - N/A   pogodnie
10:00 AM 69.8 ° F 48.2 ° F 46% 29.98 cali - wschodni 10.4 mph - N/A   pogodnie
10:30 AM 71.6 ° F 48.2 ° F 43% 29.95 cali - wschodni 11.5 mph - N/A   pogodnie
11:30 AM 73.4 ° F 48.2 ° F 41% 29.95 cali - wschodni 8.1 mph - N/A   pogodnie
12:00 PM 73.4 ° F 50.0 ° F 44% 29.95 cali - wschodni 9.2 mph - N/A   pogodnie
12:30 PM 75.2 ° F 50.0 ° F 41% 29.95 cali - wschodni 12.7 mph - N/A   pogodnie
1:00 PM 75.2 ° F 50.0 ° F 41% 29.95 cali - wschodni 10.4 mph - N/A   pogodnie
1:30 PM 77.0 ° F 50.0 ° F 39% 29.92 cali - wschodni 9.2 mph - N/A   pogodnie
2:00 PM 77.0 ° F 48.2 ° F 36% 29.92 cali - PdWs 6.9 mph - N/A   pogodnie
2:30 PM 78.8 ° F 51.8 ° F 39% 29.92 cali - wschodni 10.4 mph - N/A   pogodnie
3:30 PM 78.8 ° F 48.2 ° F 34% 29.89 cali - wschodni 13.8 mph - N/A   pogodnie
4:00 PM 78.8 ° F 48.2 ° F 34% 29.89 cali - WsPdWs 9.2 mph - N/A   pogodnie
4:30 PM 78.8 ° F 48.2 ° F 34% 29.89 cali - wschodni 8.1 mph - N/A   pogodnie
5:00 PM 78.8 ° F 48.2 ° F 34% 29.89 cali - wschodni 9.2 mph - N/A   pogodnie
5:30 PM 78.8 ° F 48.2 ° F 34% 29.89 cali - wschodni 10.4 mph - N/A   pogodnie
6:00 PM 78.8 ° F 48.2 ° F 34% 29.86 cali - wschodni 11.5 mph - N/A   pogodnie
6:30 PM 77.0 ° F 48.2 ° F 36% 29.86 cali - wschodni 9.2 mph - N/A   pogodnie
7:00 PM 77.0 ° F 50.0 ° F 39% 29.86 cali - wschodni 9.2 mph - N/A   pogodnie
7:30 PM 75.2 ° F 50.0 ° F 41% 29.86 cali - wschodni 8.1 mph - N/A   pogodnie
8:00 PM 75.2 ° F 48.2 ° F 38% 29.86 cali - wschodni 8.1 mph - N/A   pogodnie
8:30 PM 71.6 ° F 48.2 ° F 43% 29.86 cali - wschodni 6.9 mph - N/A   pogodnie
9:00 PM 69.8 ° F 48.2 ° F 46% 29.86 cali - wschodni 6.9 mph - N/A   pogodnie
9:30 PM 68.0 ° F 48.2 ° F 49% 29.89 cali - wschodni 5.8 mph - N/A   pogodnie
10:00 PM 68.0 ° F 48.2 ° F 49% 29.89 cali - wschodni 8.1 mph - N/A   pogodnie
10:30 PM 66.2 ° F 48.2 ° F 52% 29.89 cali - wschodni 9.2 mph - N/A   pogodnie
11:00 PM 64.4 ° F 48.2 ° F 56% 29.89 cali - wschodni 8.1 mph - N/A   pogodnie
11:30 PM 62.6 ° F 48.2 ° F 59% 29.89 cali - wschodni 6.9 mph - N/A   pogodnie